sat.trackr.live / text

‹ back to catalog

STARLINK-4800

NORAD 53854 · 2022-114AN

PAYLOAD ACTIVE UNKNOWN

§ Identity

Operator
Country
US
Launch date
2022-09-19
Launch site
AFETR
Launch vehicle
Mass (kg)
RCS (m²)

Purposes: comms

External: N2YO · Heavens-Above · Gunter

§ Orbital elements

Epoch: 2026-05-25T03:56:53.955168Z

Period
95.44 min
Inclination
53.2138°
Eccentricity
0.0001390
Mean motion
15.08832515 rev/d
Perigee alt
538.8 km
Apogee alt
540.7 km
Semi-major
6,917.9 km
B*
3.7280e-5
RAAN
301.0461°
Arg perigee
78.8034°
Mean anomaly
281.3114°
Rev number
20,465

§ Raw data

STARLINK-48001 53854U 22114AN  26145.16451337  .00000305  00000+0  37280-4 0  99942 53854  53.2138 301.0461 0001390  78.8034 281.3114 15.08832515204652

JSON: /api/v1/satellites/53854 · /tle

For live sub-satellite position, see the globe view (requires WebGL).

§ Visibility from observer

Set your observer location to see the next 7 days of passes ≥ 10°. The values pass through the URL so the page stays shareable.

No JS? Fill the form by hand. The geolocation button needs JavaScript.